カタログに戻る

THORAD DELTA 1 DEB

運用中LEO
NORAD 9986·DEBRIS·🇺🇸 United States

打ち上げ Nov 15, 1974 から Vandenberg Space Force Base

Loading…

次のパス (今後24時間)

TLE

最新Source: Space-Track

元期: Sep 14, 2026, 09:19 UTC

1 09986U 74089ED  26257.38875714 -.00004787  00000-0 -47277-2 0  9992
2 09986 103.2577 222.0441 0368745 303.3734  53.2605 13.51470606443779

AllMySatでTHORAD DELTA 1 DEBをリアルタイム追跡

Download on the App Store